Location: Newark
(13.6797°N, 8.5297°E)
Time: 23:46:33
(UTC+00:00)

LightSail 2 - Pass Details

Date: 12 December 2019
Orbit: 704 x 719 km, 24.0° (Epoch: 23 January)

Event Time Altitude Azimuth Distance (km) Brightness Sun altitude
Rises 17:36:03 0° 292° (WNW) 3,100 9.2 -9.0°
Reaches altitude 10° 17:38:29 10° 294° (WNW) 2,177 8.3 -9.6°
Maximum altitude 17:43:38 79° 20° (NNE) 722 5.1 -10.7°
Drops below altitude 10° 17:48:46 10° 107° (ESE) 2,165 7.2 -11.9°
Enters shadow 17:48:57 - 107° (ESE) 2,235 7.3 -11.9°
